Regional Weather Roundup
Issued by NWS

Home | Current Version | Previous Version | Graphics & Text | Print | Product List | Glossary On
Versions: 1 2 3 4 5 6 7 8 9 10 11 12 13 14 15 16 17 18 19 20 21 22 23 24 25 26 27 28 29 30 31 32 33 34 35 36 37 38 39 40 41 42 43 44 45 46 47 48 49 50
000
ASUS43 KBIS 040802
RWRND

NORTH DAKOTA REGIONAL WEATHER ROUNDUP
NATIONAL WEATHER SERVICE BISMARCK ND
200 AM CST SUN DEC 04 2016

NOTE: "FAIR" INDICATES FEW OR NO CLOUDS BELOW 12,000 FEET WITH NO
SIGNIFICANT WEATHER AND/OR OBSTRUCTIONS TO VISIBILITY.


NDZ001>003-009>011-017-040900-
NORTHWEST NORTH DAKOTA

CITY           SKY/WX    TMP DP  RH WIND       PRES   REMARKS
WILLISTON      LGT SNOW  33  30  88 W12       29.77S FOG
MINOT          CLOUDY    32  29  88 W13       29.71S
MINOT AFB      MOCLDY    29  26  89 NW14      29.70S WCI  18
$$

NDZ018>021-031>035-040>046-040900-
SOUTHWEST NORTH DAKOTA

CITY           SKY/WX    TMP DP  RH WIND       PRES   REMARKS
BISMARCK       CLOUDY    34  31  88 W10       29.77F
DICKINSON      CLEAR     25  22  88 W14       29.76F WCI  13
GARRISON         N/A     34  32  92 W8        29.72F
HETTINGER ARPT CLEAR     25  19  78 W16       29.82F WCI  12
$$

NDZ004>008-012>016-024-026-027-054-040900-
NORTHEAST NORTH DAKOTA

CITY           SKY/WX    TMP DP  RH WIND       PRES   REMARKS
GRAND FORKS    CLOUDY    34  31  88 S14       29.82F FOG
GRND FRKS AFB  CLOUDY    33  32  96 S13       29.81F
DEVILS LAKE    LGT SNOW  32  31  96 S13       29.73F FOG
$$

NDZ022-023-025-028>030-036>039-047>053-040900-
SOUTHEAST NORTH DAKOTA

CITY           SKY/WX    TMP DP  RH WIND       PRES   REMARKS
FARGO          CLOUDY    35  32  88 S15G23    29.86F
JAMESTOWN      CLOUDY    32  30  92 S13       29.76F
$$





USA.gov is the U.S. government's official web portal to all federal, state and local government web resources and services.